カタログに戻る

STARLINK-36840

運用中通信VLEO
NORAD 67850·PAYLOAD·🇺🇸 United States

打ち上げ Feb 20, 2026 から Vandenberg Space Force Base

Loading…

次のパス (今後24時間)

TLE

最新Source: CelesTrak SupGP

元期: Sep 14, 2026, 21:06 UTC

1 67850C 26034A   26257.87965278  .00033674  00000+0  99531-3 0  2574
2 67850  53.1594  43.6385 0001234  79.4126  67.7789 15.34361528    16

AllMySatでSTARLINK-36840をリアルタイム追跡

Download on the App Store